Skagway, AK

4:12 PM AKDT on June 22, 2017 (GMT -0800)
Skagway

Weather History for PAGY - September, 2014

Change the Weather History Date:

Tuesday, September 2, 2014

  Actual Average Record
Temperature  
Mean Temperature 52 °F -  
Max Temperature 57 °F 57 °F 71 °F (1996)
Min Temperature 46 °F 45 °F 41 °F (1988)
Degree Days  
Heating Degree Days 14    
Growing Degree Days 2 (Base 50)    
Moisture  
Dew Point 46 °F    
Average Humidity 82    
Maximum Humidity 93    
Minimum Humidity 64    
Precipitation  
Precipitation 0.00 in - - ()
Sea Level Pressure  
Sea Level Pressure 29.98 in    
Wind  
Wind Speed 6 mph (SSW)    
Max Wind Speed 21 mph    
Max Gust Speed 29 mph    
Visibility 10 miles    
Events      
Averages and records for this station are not official NWS values.
T = Trace of Precipitation, MM = Missing Value Source: NWS Daily Summary

Daily Weather History Graph

Daily Weather History Graph

Search for Another Location

Airport or City:

Trip Planner

Search our weather history database for the weather conditions in past years. The results will help you decide how hot, cold, wet, or windy it might be!

Date:

Astronomy

Sep. 02, 2014 Rise Set
Actual Time 6:00 AM AKDT 7:59 PM AKDT
Civil Twilight 5:16 AM AKDT 8:43 PM AKDT
Nautical Twilight 4:19 AM AKDT 9:39 PM AKDT
Astronomical Twilight 3:09 AM AKDT 10:48 PM AKDT
Moon 3:38 PM AKDT (9/2) 11:14 PM AKDT (9/2)
Length of Visible Light 15h 26m
Length of Day
13h 59m
First Quarter, 54% of the Moon is Illuminated
Sep 2
First Quarter
Sep 8
Full
Sep 15
Last Quarter
Sep 23
New
Oct 1
First Quarter

Hourly Weather History & Observations

Time (AKDT) Temp. Dew Point Humidity Pressure Visibility Wind Dir Wind Speed Gust Speed Precip Events Conditions
12:53 AM 48.0 °F 45.0 °F 89% 29.94 in 10.0 mi NNE 3.5 mph - N/A   Overcast
1:17 AM 46.9 °F 45.0 °F 93% 29.94 in 10.0 mi NNE 3.5 mph - N/A   Overcast
1:53 AM 48.0 °F 45.0 °F 89% 29.96 in 10.0 mi Calm Calm - N/A   Overcast
2:29 AM 48.0 °F 45.0 °F 89% 29.97 in 10.0 mi Calm Calm - N/A   Overcast
2:53 AM 46.9 °F 45.0 °F 93% 29.97 in 10.0 mi Calm Calm - N/A   Overcast
3:17 AM 48.0 °F 46.0 °F 93% 29.98 in 10.0 mi Calm Calm - N/A   Overcast
3:32 AM 48.0 °F 45.0 °F 89% 29.97 in 10.0 mi Calm Calm - N/A   Overcast
3:53 AM 48.0 °F 45.0 °F 89% 29.97 in 10.0 mi Calm Calm - N/A   Overcast
4:53 AM 48.0 °F 45.0 °F 89% 29.99 in 10.0 mi Calm Calm - N/A   Overcast
5:35 AM 48.0 °F 45.0 °F 89% 30.00 in 10.0 mi Calm Calm - N/A   Overcast
5:53 AM 48.0 °F 46.0 °F 93% 30.00 in 10.0 mi Calm Calm - N/A   Overcast
6:53 AM 48.0 °F 46.0 °F 93% 29.99 in 8.0 mi Calm Calm - N/A   Overcast
7:53 AM 48.9 °F 46.0 °F 90% 30.01 in 10.0 mi NNE 3.5 mph - N/A   Overcast
8:53 AM 50.0 °F 46.9 °F 89% 30.00 in 10.0 mi Calm Calm - N/A   Overcast
9:32 AM 51.1 °F 46.9 °F 86% 30.01 in 10.0 mi Calm Calm - N/A   Overcast
9:45 AM 53.1 °F 48.0 °F 83% 30.00 in 10.0 mi Calm Calm - N/A   Overcast
9:53 AM 52.0 °F 48.0 °F 86% 30.00 in 10.0 mi Calm Calm - N/A   Overcast
10:33 AM 51.1 °F 45.0 °F 80% 30.01 in 10.0 mi SW 15.0 mph - N/A   Overcast
10:53 AM 51.1 °F 46.0 °F 83% 29.99 in 10.0 mi WSW 18.4 mph - N/A   Overcast
11:53 AM 55.9 °F 46.0 °F 69% 29.99 in 10.0 mi SSW 19.6 mph 26.5 mph N/A   Scattered Clouds
12:53 PM 54.0 °F 46.0 °F 75% 29.99 in 10.0 mi SSW 19.6 mph 25.3 mph N/A   Overcast
1:53 PM 55.9 °F 46.9 °F 72% 29.99 in 10.0 mi SSW 16.1 mph - N/A   Mostly Cloudy
2:53 PM 57.0 °F 46.9 °F 69% 29.99 in 10.0 mi SSW 20.7 mph 28.8 mph N/A   Mostly Cloudy
3:53 PM 55.9 °F 46.0 °F 69% 29.98 in 10.0 mi SSW 20.7 mph 27.6 mph N/A   Overcast
4:53 PM 57.0 °F 46.0 °F 67% 29.96 in 10.0 mi SSW 19.6 mph - N/A   Overcast
5:53 PM 57.0 °F 46.0 °F 67% 29.97 in 10.0 mi SSW 17.3 mph - N/A   Overcast
7:53 PM 57.0 °F 45.0 °F 64% 29.97 in 10.0 mi SSW 13.8 mph - N/A   Overcast
8:53 PM 55.9 °F 46.9 °F 72% 29.99 in 10.0 mi SSW 16.1 mph - N/A   Overcast
9:53 PM 55.9 °F 46.9 °F 72% 29.96 in 10.0 mi SSW 19.6 mph - N/A   Overcast
10:53 PM 55.0 °F 46.9 °F 74% 29.96 in 10.0 mi SSW 18.4 mph - N/A   Overcast
11:53 PM 55.0 °F 48.0 °F 77% 29.97 in 10.0 mi SSW 17.3 mph 25.3 mph N/A   Overcast